User: anonymous   Login
Location: Unspecified
(0.0000°N, 0.0000°E)
Time: 07:45:18
(UTC+00:00)
Language:

Explorer 26 - Orbit

View from above orbital plane
View from above orbital plane
View from above satellite
View from above satellite

Ground track
Ground track

The orbit data is extracted from the following two-line orbital elements,

1 00963U 64086A   18113.15947246  .00058981 -11037-4  60583-3 0  9997
2 00963  19.7153 156.6128 1047997 170.4252 191.7856 13.62404532 84024
Epoch (UTC): 23 April 2018 03:49:38
Eccentricity: 0.1047997
inclination: 19.7153°
perigee height: 251 km
apogee height: 1803 km
right ascension of ascending node: 156.6128°
argument of perigee: 170.4252°
revolutions per day: 13.62404532
mean anomaly at epoch: 191.7856°
orbit number at epoch: 8402

The dashed part of the orbit path shows where the satellite is in the earth's shadow,  

DLR